Location: Corcelles
(46.1547°N, 4.7234°E)
Time: 20:30:22
(UTC+00:00)

Cosmos 1802 Rocket - Pass Details

Date: 14 July 2020
Orbit: 954 x 1012 km, 82.9° (Epoch: 14 August)

Event Time Altitude Azimuth Distance (km) Brightness Sun altitude
Exits shadow 01:03:01 29° 167° (SSE) 1,750 4.9 -20.1°
Maximum altitude 01:06:24 66° 94° (E) 1,094 4.3 -19.9°
Drops below altitude 10° 01:12:47 10° 14° (NNE) 2,803 7.6 -19.5°
Sets 01:15:21 0° 11° (NNE) 3,758 8.6 -19.3°
